Погода в Здолбунове

Украина / Ровненская область     50°31′18″N   26°14′37″E
темп.,
°C
ветер,
м/с
пор.,
м/с
влажн.,
%
обл.,
%
осадки,
мм/ч
давл.,
гПа
погр.,
м
15 апреля, чт
чт1500:00+5сз4593100 0.3 1015302
03:00+5зсз4594100 0.5 1015320
06:00+4зсз4595100 0.3 1015321
09:00+3зсз4594100 0.3 1016320
12:00+4зсз5592100 0.1 1016366
15:00+5зсз5688100 0.1 1016484
18:00+5зсз6789100 0.0 1015507
21:00+3з61094100 0.0 1016424
16 апреля, пт
пт1600:00+3з61196100 0.0 1015411
03:00+2з61196100 0.1 1014415
06:00+2з61196100 0.1 1014440
09:00+2з61096100 0.2 1015497
12:00+2з51096100 0.7 1015545
15:00+3з51097100 1.0 1016560
18:00+2з51096100 0.4 1017519
21:00+2зюз5997100 0.4 1018470
17 апреля, сб
сб1700:00+2зюз4897100 0.1 1018503
03:00+2зюз4897100 0.4 1018422
06:00+2юз3797100 0.1 1019424
09:00+3ююз3699100 0.2 1020436
12:00+3юз3598100 0.1 1021498
15:00+4юз2496100 0.2 1021439
18:00+4ю1296100 0.0 1022288
21:00+4ссв229688 0.0 102223
18 апреля, вс
вс1800:00+2всв349671 0.0 102260
03:00+3в3491100 0.0 102163
06:00+4юв378588 0.0 1021108
09:00+8юв4674100 0.0 1021298
12:00+12вюв5653100 0.0 10211634
15:00+13вюв5745100 0.1 10202099
18:00+12в6957100 0.0 1020739
21:00+9в4970100 0.1 1020257
19 апреля, пн
пн1900:00+8юв2277100 0.1 102038
03:00+8всв3678100 0.1 1018174
06:00+7в4991100 0.6 1017371
09:00+7в4994100 2.4 1016489
12:00+8в5989100 1.3 10151228
15:00+7в5991100 4.2 10131167
18:00+8в51093100 5.2 1011684
21:00+7в4896100 5.4 1010495